Location: Crescent
(42.8242°N, 73.7329°W)
Time: 07:12:47
(UTC+00:00)

Vanguard 1 - Pass Details

Date: 25 February 2026
Orbit: 653 x 3818 km, 34.2° (Epoch: 12 March)

Event Time Altitude Azimuth Distance (km) Brightness Sun altitude
Rises 23:54:59 0° 276° (W) 5,560 15.8 -14.8°
Reaches altitude 10° 23:58:20 10° 269° (W) 4,925 15.0 -15.4°
Maximum altitude 00:12:16 42° 206° (SSW) 4,089 13.3 -18.0°
Drops below altitude 10° 00:32:24 10° 145° (SE) 6,908 14.0 -21.6°
Enters shadow 00:37:44 - 140° (SE) 7,813 14.2 -22.6°
Sets 00:38:21 0° 139° (SE) 7,917 - -22.7°
